EW9662 Weather Reports


time (UTC)temp
C
wind
direction
speed
KPH
gust
KPH
rain 1hr
cm
rain 24hr
cm
rain mn
cm
humidity
%
barometer
mb
20260504214004 21 110 9.7 32.2 0.00 0.00 0.00 28 1006.9
20260504213508 21 86 8.0 32.2 0.00 0.00 0.00 29 1007.0
20260504213010 21 71 6.4 32.2 0.00 0.00 0.00 29 1007.0
20260504212508 21 117 4.8 32.2 0.00 0.00 0.00 29 1006.8
20260504212009 21 113 6.4 27.4 0.00 0.00 0.00 29 1006.9
20260504211508 21 114 14.5 27.4 0.00 0.00 0.00 29 1007.0
20260504211006 21 71 4.8 20.9 0.00 0.00 0.00 29 1007.0
20260504210507 21 86 9.7 25.7 0.00 0.00 0.00 29 1007.0
20260504210025 21 124 8.0 25.7 0.00 0.00 0.00 28 1007.0
20260504205503 21 73 8.0 17.7 0.00 0.00 0.00 28 1007.1
20260504205010 21 71 6.4 19.3 0.00 0.00 0.00 28 1007.1
20260504204517 21 108 4.8 20.9 0.00 0.00 0.00 28 1007.0
20260504204003 22 69 8.0 22.5 0.00 0.00 0.00 29 1007.0
20260504203503 22 102 6.4 24.1 0.00 0.00 0.00 27 1006.9
20260504203023 22 95 9.7 24.1 0.00 0.00 0.00 28 1006.9
20260504202508 22 91 9.7 25.7 0.00 0.00 0.00 27 1006.9
20260504202006 22 136 6.4 25.7 0.00 0.00 0.00 28 1006.9
20260504201512 22 130 4.8 24.1 0.00 0.00 0.00 28 1006.9
20260504201010 22 99 8.0 24.1 0.00 0.00 0.00 27 1006.9
20260504200513 22 92 11.3 29.0 0.00 0.00 0.00 28 1007.0
20260504200010 22 108 12.9 29.0 0.00 0.00 0.00 27 1007.0
20260504195505 22 344 9.7 25.7 0.00 0.00 0.00 28 1006.9
20260504195008 22 70 4.8 22.5 0.00 0.00 0.00 28 1007.0
20260504194515 22 111 12.9 29.0 0.00 0.00 0.00 27 1007.1
20260504194003 22 84 6.4 29.0 0.00 0.00 0.00 28 1006.9
20260504193507 21 65 9.7 29.0 0.00 0.00 0.00 26 1007.1
20260504193023 22 128 4.8 19.3 0.00 0.00 0.00 27 1007.3
20260504192503 22 124 8.0 30.6 0.00 0.00 0.00 27 1007.0
20260504192008 22 170 6.4 30.6 0.00 0.00 0.00 26 1007.0
20260504191528 22 132 4.8 20.9 0.00 0.00 0.00 26 1007.2
20260504191004 22 44 4.8 17.7 0.00 0.00 0.00 26 1006.9
20260504190505 22 99 6.4 24.1 0.00 0.00 0.00 28 1007.2
20260504190021 21 113 9.7 24.1 0.00 0.00 0.00 25 1007.3
20260504185510 21 84 11.3 20.9 0.00 0.00 0.00 26 1007.3
20260504185003 22 127 8.0 27.4 0.00 0.00 0.00 26 1007.3
20260504184518 21 98 6.4 27.4 0.00 0.00 0.00 27 1007.5
20260504184006 21 128 6.4 19.3 0.00 0.00 0.00 25 1007.5
20260504183503 21 90 4.8 19.3 0.00 0.00 0.00 25 1007.4
20260504183012 21 117 8.0 25.7 0.00 0.00 0.00 26 1007.6
20260504182506 21 150 4.8 32.2 0.00 0.00 0.00 26 1007.7
20260504182007 21 116 11.3 32.2 0.00 0.00 0.00 26 1007.8
20260504181508 21 88 9.7 29.0 0.00 0.00 0.00 26 1007.8
20260504181004 21 117 11.3 27.4 0.00 0.00 0.00 25 1007.8
20260504180508 21 221 6.4 27.4 0.00 0.00 0.00 26 1007.7
20260504180013 21 84 11.3 27.4 0.00 0.00 0.00 26 1007.8
20260504175507 21 137 11.3 27.4 0.00 0.00 0.00 25 1007.9
20260504175005 21 58 12.9 32.2 0.00 0.00 0.00 27 1007.9
20260504174524 20 135 9.7 32.2 0.00 0.00 0.00 27 1007.9
20260504174003 21 54 11.3 32.2 0.00 0.00 0.00 26 1008.0
20260504173506 21 22 9.7 27.4 0.00 0.00 0.00 28 1007.9
20260504173024 21 71 12.9 27.4 0.00 0.00 0.00 27 1008.1
20260504172509 21 75 12.9 24.1 0.00 0.00 0.00 27 1008.0
20260504172006 20 110 11.3 30.6 0.00 0.00 0.00 27 1008.0
20260504171524 20 134 14.5 30.6 0.00 0.00 0.00 27 1008.1
20260504171012 20 101 8.0 33.8 0.00 0.00 0.00 28 1008.3
20260504170504 20 89 16.1 33.8 0.00 0.00 0.00 27 1008.3
20260504151006 18 34 9.7 37.0 0.00 0.00 0.00 34 1009.3
20260504150510 17 80 6.4 37.0 0.00 0.00 0.00 32 1009.5
20260504141013 17 119 4.8 24.1 0.00 0.00 0.00 36 1009.8
20260504140506 16 69 11.3 24.1 0.00 0.00 0.00 35 1009.9
20260504130512 15 148 3.2 19.3 0.00 0.00 0.00 40 1010.7
20260504110506 10 73 4.8 12.9 0.00 0.00 0.00 50 1010.9
20260504100503 7 97 3.2 6.4 0.00 0.00 0.00 55 1010.9
20260504082008 7 97 0.0 1.6 0.00 0.00 0.00 60 1010.9
20260504081518 7 98 0.0 3.2 0.00 0.00 0.00 60 1010.9
20260504081007 7 98 0.0 3.2 0.00 0.00 0.00 59 1010.9
20260504080509 7 94 0.0 3.2 0.00 0.00 0.00 60 1010.9
20260504050509 2 108 0.0 1.6 0.00 0.00 0.00 83 1010.9
20260504050020 2 108 0.0 1.6 0.00 0.00 0.00 84 1010.9
20260504045501 2 108 0.0 1.6 0.00 0.00 0.00 84 1011.0
20260504045003 2 108 0.0 1.6 0.00 0.00 0.00 84 1011.1
20260504044516 1 108 0.0 1.6 0.00 0.00 0.00 84 1011.1
20260504044008 1 108 0.0 1.6 0.00 0.00 0.00 85 1011.1
20260504043503 1 108 0.0 1.6 0.00 0.00 0.00 86 1011.1
20260504043010 1 108 0.0 1.6 0.00 0.00 0.00 85 1011.1
20260504042506 1 120 0.0 1.6 0.00 0.00 0.00 85 1011.0
20260504042004 1 120 0.0 1.6 0.00 0.00 0.00 85 1011.0
20260504041507 1 120 0.0 1.6 0.00 0.00 0.00 84 1011.0
20260504041004 1 119 0.0 1.6 0.00 0.00 0.00 84 1011.0
20260504040506 1 120 0.0 1.6 0.00 0.00 0.00 84 1010.8
20260504040007 1 120 0.0 1.6 0.00 0.00 0.00 83 1010.8
20260504035502 1 120 0.0 1.6 0.00 0.00 0.00 82 1010.7
20260504035004 1 120 0.0 0.0 0.00 0.00 0.00 82 1010.7
20260504034504 1 119 0.0 0.0 0.00 0.00 0.00 82 1010.7
20260504034003 1 120 0.0 1.6 0.00 0.00 0.00 81 1010.6
20260504033503 1 120 0.0 1.6 0.00 0.00 0.00 81 1010.6
20260504033027 1 120 0.0 1.6 0.00 0.00 0.00 80 1010.6
20260504032503 1 121 0.0 1.6 0.00 0.00 0.00 79 1010.4
20260504032003 1 121 0.0 1.6 0.00 0.00 0.00 79 1010.5
20260504031516 1 121 0.0 1.6 0.00 0.00 0.00 78 1010.5
20260504031007 1 121 0.0 1.6 0.00 0.00 0.00 77 1010.6
20260504030503 2 121 0.0 1.6 0.00 0.00 0.00 77 1010.5
20260504030015 2 121 0.0 1.6 0.00 0.00 0.00 77 1010.4
20260504025508 2 121 0.0 1.6 0.00 0.00 0.00 76 1010.4
20260504025003 2 121 0.0 1.6 0.00 0.00 0.00 76 1010.4
20260504024512 2 121 0.0 1.6 0.00 0.00 0.00 75 1010.3
20260504024008 2 121 0.0 0.0 0.00 0.00 0.00 75 1010.3
20260504023507 2 121 0.0 1.6 0.00 0.00 0.00 75 1010.3
20260504023008 2 121 0.0 1.6 0.00 0.00 0.00 74 1010.3
20260504022503 2 121 0.0 0.0 0.00 0.00 0.00 73 1010.2
20260504022007 2 121 0.0 1.6 0.00 0.00 0.00 73 1010.2
20260504021505 2 121 0.0 1.6 0.00 0.00 0.00 73 1010.2
20260504021003 2 121 0.0 1.6 0.00 0.00 0.00 73 1010.2
20260504020506 2 121 0.0 0.0 0.00 0.00 0.00 71 1010.1
20260504020025 3 121 0.0 0.0 0.00 0.00 0.00 71 1010.1
20260504015504 3 121 0.0 0.0 0.00 0.00 0.00 71 1010.0
20260504015004 3 121 0.0 0.0 0.00 0.00 0.00 69 1009.9
20260504014521 3 121 0.0 0.0 0.00 0.00 0.00 69 1010.0
20260504014009 3 121 0.0 0.0 0.00 0.00 0.00 68 1010.0
20260504013504 3 121 0.0 1.6 0.00 0.00 0.00 67 1009.9
20260504013016 3 121 0.0 1.6 0.00 0.00 0.00 66 1009.9
20260504012507 4 121 0.0 1.6 0.00 0.00 0.00 66 1009.9
20260504012003 4 121 0.0 0.0 0.00 0.00 0.00 66 1009.9
20260504011512 4 121 0.0 0.0 0.00 0.00 0.00 64 1009.9
20260504011007 4 121 0.0 0.0 0.00 0.00 0.00 64 1009.9
20260504010512 5 121 0.0 0.0 0.00 0.00 0.00 63 1009.8
20260504010009 5 121 0.0 0.0 0.00 0.00 0.00 63 1009.8
20260504005504 5 121 0.0 0.0 0.00 0.00 0.00 61 1009.6
20260504005009 5 121 0.0 0.0 0.00 0.00 0.00 59 1009.7
20260504004504 5 121 0.0 0.0 0.00 0.00 0.00 60 1009.6
20260504004004 5 121 0.0 0.0 0.00 0.00 0.00 58 1009.5
20260504003508 6 121 0.0 0.0 0.00 0.00 0.00 59 1009.4
20260504003023 6 121 0.0 0.0 0.00 0.00 0.00 59 1009.4
20260504002505 6 121 0.0 0.0 0.00 0.00 0.00 58 1009.4
20260504002005 6 121 0.0 1.6 0.00 0.00 0.00 55 1009.3
20260504001519 7 121 0.0 1.6 0.00 0.00 0.00 53 1009.2
20260504001004 7 121 0.0 0.0 0.00 0.00 0.00 51 1009.2
20260504000505 8 121 0.0 0.0 0.00 0.00 0.00 50 1009.1
20260504000020 8 121 0.0 1.6 0.00 0.00 0.00 47 1009.0
20260503235507 8 121 0.0 3.2 0.00 0.00 0.00 45 1009.0
20260503235004 8 121 0.0 3.2 0.00 0.00 0.00 47 1009.0
20260503234518 8 101 0.0 1.6 0.00 0.00 0.00 46 1009.0
20260503234008 9 121 0.0 1.6 0.00 0.00 0.00 45 1008.8
20260503233507 9 149 0.0 1.6 0.00 0.00 0.00 42 1008.9
20260503233012 9 149 0.0 1.6 0.00 0.00 0.00 42 1008.8
20260503232505 10 149 0.0 1.6 0.00 0.00 0.00 43 1008.7
20260503232009 10 167 0.0 1.6 0.00 0.00 0.00 42 1008.7
20260503231510 10 167 0.0 1.6 0.00 0.00 0.00 41 1008.7
20260503231007 10 138 0.0 3.2 0.00 0.00 0.00 40 1008.6
20260503230505 10 138 0.0 4.8 0.00 0.00 0.00 37 1008.5
20260503230025 10 146 0.0 6.4 0.00 0.00 0.00 39 1008.5
20260503225505 10 150 0.0 6.4 0.00 0.00 0.00 38 1008.4
20260503225009 10 165 1.6 6.4 0.00 0.00 0.00 38 1008.4
20260503224523 10 136 0.0 6.4 0.00 0.00 0.00 38 1008.3
20260503224004 10 153 1.6 6.4 0.00 0.00 0.00 38 1008.3
20260503223506 10 155 0.0 6.4 0.00 0.00 0.00 38 1008.3
20260503223024 10 155 1.6 12.9 0.00 0.00 0.00 37 1008.2
20260503222509 10 102 4.8 12.9 0.00 0.00 0.00 36 1008.2
20260503222006 10 155 4.8 12.9 0.00 0.00 0.00 36 1008.2
20260503221518 10 125 6.4 20.9 0.00 0.00 0.00 35 1008.1
20260503221010 11 217 6.4 20.9 0.00 0.00 0.00 35 1008.1
20260503220503 11 178 3.2 27.4 0.00 0.00 0.00 34 1008.0
20260503220017 11 165 6.4 27.4 0.00 0.00 0.00 34 1008.0
20260503215508 11 138 3.2 29.0 0.00 0.00 0.00 34 1007.9
20260503215012 11 151 8.0 29.0 0.00 0.00 0.00 35 1007.9
20260503214513 11 143 4.8 11.3 0.00 0.00 0.00 34 1007.8